AMC-6

Last updated on Tue Oct 21 2025 00:02:50 GMT+0000 (Coordinated Universal Time)

1 26580U 00067A 25293.59630495 .00000092 00000+0 00000+0 0 9995 2 26580 0.0751 68.0055 0003542 138.6189 262.3076 1.00271766 91499
UTC large
Height (km)
Speed (km/s)
/
Latitude / Longitude
Inclination (degrees)
Orbital Period (minutes)
Azimuth
Elevation
Range (km)
Doppler Factor

Next 0 passes for location: London (51.5072 / 0.1276)

Sorry there are no passes over London.